GALAXY 17 (G-17)

Last updated on Wed Dec 17 2025 00:02:49 GMT+0000 (Coordinated Universal Time)

1 31307U 07016B 25350.25430600 -.00000185 00000+0 00000+0 0 9996 2 31307 2.5088 82.2461 0005581 167.2407 202.2360 1.00272151 67971
UTC large
Height (km)
Speed (km/s)
/
Latitude / Longitude
Inclination (degrees)
Orbital Period (minutes)
Azimuth
Elevation
Range (km)
Doppler Factor

Next 0 passes for location: London (51.5072 / 0.1276)

Sorry there are no passes over London.